Terminal Aerodrome Forecast
Issued by NWS Duluth, MN

Home | Current Version | Previous Version | Text Only | Print | Product List | Glossary On
Versions: 1 2 3 4 5 6 7 8 9 10 11 12 13 14 15 16 17 18 19 20 21 22 23 24 25
000
FTUS43 KDLH 310500
TAFDLH
TAF
KDLH 310533Z 3106/0106 30005KT P6SM FEW050
      TEMPO 3110/3112 1SM BR BKN002
     FM311500 34006KT P6SM SCT070=

USA.gov is the U.S. government's official web portal to all federal, state and local government web resources and services.